Probability
0 0 0 0 0 0 0 0 1 2 1 2 4 5 6 8 11 16 19 22 26 29 35 41 46 50 48 45 42 40 38 38 39 42 42 38 31 26 24 23 23 24 24 25
0 0 0 0 0 0 0 0 1 1 1 3 6 8 10 11 14 17 20 23 26 30 39 46 49 51 49 46 44 42 41 40 42 44 44 40 35 30 26 24 25 27 27 26
0 0 0 0 0 0 0 0 0 1 2 4 9 12 15 16 17 19 22 25 27 33 43 48 48 50 49 45 44 46 46 45 46 48 47 43 39 35 32 29 30 31 31 31
0 0 0 0 0 0 0 0 0 1 3 6 11 14 16 18 19 21 25 30 35 37 41 43 43 46 47 43 44 48 50 49 48 49 48 46 42 39 37 36 34 33 33 34
0 0 0 0 0 0 0 0 0 1 3 6 9 12 15 18 21 24 30 38 42 41 38 38 38 42 45 44 44 48 51 52 49 48 48 46 43 41 40 39 37 34 33 34
0 0 0 0 0 0 1 2 3 3 4 5 9 15 21 24 27 31 35 40 42 40 39 39 39 43 49 49 46 48 51 51 49 48 47 44 41 40 41 41 38 33 32 33
0 0 1 1 1 3 8 10 10 8 9 12 18 26 31 34 36 40 41 40 39 40 43 46 46 50 54 54 51 50 50 50 50 48 45 42 41 42 42 42 40 36 34 34
3 3 5 7 8 12 20 23 18 15 17 22 29 35 39 41 42 44 44 42 40 43 48 51 52 54 56 56 55 53 51 50 50 48 44 42 44 45 45 46 45 42 40 39
10 10 13 16 17 21 26 26 21 19 23 28 33 38 43 46 47 47 46 44 43 46 50 52 53 54 54 55 54 52 51 51 51 49 45 45 47 48 46 47 47 45 43 43
16 16 17 18 20 22 22 21 18 20 24 28 32 38 46 51 54 52 48 46 45 46 49 50 51 51 51 51 51 50 49 50 50 47 46 47 48 48 46 45 45 45 44 44
22 21 18 17 18 19 19 19 19 20 23 25 29 37 45 53 55 52 47 44 43 45 47 47 47 47 48 49 49 48 47 47 45 42 42 44 43 42 40 38 36 36 37 38
26 25 21 18 17 18 19 21 22 22 23 24 28 34 42 48 50 46 41 40 41 42 43 43 43 43 44 45 45 44 44 42 37 35 37 38 36 33 30 25 21 19 21 23
21 22 22 20 19 18 19 21 23 24 24 25 28 32 37 41 42 39 36 36 38 37 38 39 39 40 40 40 40 39 38 36 31 30 33 34 32 30 26 19 13 10 9 8
15 17 20 21 20 18 18 19 21 23 24 27 30 32 34 36 37 35 32 31 31 31 31 32 34 36 37 36 35 33 30 28 26 25 28 30 31 31 29 23 17 13 9 5
13 17 19 20 20 17 15 16 19 21 24 27 30 33 36 36 34 32 29 26 27 27 26 26 27 30 31 30 29 26 22 21 20 20 22 26 28 29 28 25 20 17 13 9
12 14 17 18 16 12 10 12 15 19 22 24 27 31 35 36 34 31 27 25 26 25 25 24 24 24 24 23 21 20 19 17 16 16 18 22 26 26 25 22 19 16 14 12
10 11 13 14 12 9 8 9 12 16 19 22 24 27 30 31 32 31 27 25 25 24 24 24 23 21 20 19 18 18 18 16 14 14 17 21 25 26 24 21 18 16 14 11
8 9 10 10 10 10 11 10 11 14 17 18 20 22 25 26 28 30 28 25 24 22 21 20 19 19 20 19 18 17 17 15 14 14 17 21 24 26 25 21 17 16 14 11
7 7 6 6 8 11 13 12 11 13 15 15 16 18 21 23 25 26 26 25 22 20 19 16 15 17 20 20 18 17 16 15 14 15 18 20 22 23 23 21 18 17 17 15
5 4 4 4 6 8 9 10 12 14 15 14 15 16 18 20 23 23 22 21 21 21 19 15 13 16 19 19 17 15 15 13 13 14 16 17 17 18 19 19 19 19 20 19
3 3 4 4 4 4 5 8 11 14 14 14 14 15 16 17 20 22 21 19 19 19 16 12 12 15 16 14 13 13 12 11 10 10 12 13 14 15 15 16 17 18 19 18
3 4 5 4 3 4 4 6 9 12 12 13 14 15 15 15 15 18 20 19 15 12 11 10 9 10 10 8 10 12 10 8 7 7 8 10 13 15 16 15 14 15 16 16
4 5 5 5 6 7 7 7 9 10 11 12 14 15 14 13 11 13 16 15 10 7 8 7 5 5 5 6 9 11 10 8 8 8 8 9 13 16 17 16 14 13 13 14
6 6 7 8 11 13 12 10 10 11 11 11 13 13 11 10 9 9 10 9 5 4 5 3 2 2 4 6 9 10 9 10 11 11 10 11 13 15 16 16 15 14 13 12
7 8 9 10 12 14 14 12 9 10 10 9 9 9 8 7 7 7 7 5 3 2 2 2 1 2 4 7 7 8 8 10 11 11 10 10 11 12 13 14 13 13 12 12
9 9 10 10 9 9 10 8 6 6 6 5 4 4 4 3 4 4 3 3 3 3 3 3 2 3 6 7 7 7 7 8 8 7 8 8 8 9 10 11 11 11 11 11
9 9 10 9 6 5 5 5 4 4 3 2 1 2 1 1 2 2 1 1 4 4 4 4 3 4 7 8 7 6 6 6 6 6 6 6 6 7 8 10 11 11 11 10
Wind_Speed
15 16 13 11 14 16 16 14 10 7 7 6 5 4 5 6 7 7 7 6 6 6 6 7 6 6 6 6 6 7 7 8 7 7 5 5 4 4 4 4 4 4 3 3
14 16 15 15 15 14 14 13 12 10 7 4 3 3 4 6 7 7 6 6 6 6 6 6 6 7 6 6 6 6 6 7 7 7 6 5 5 4 4 4 3 3 4 3
12 14 16 17 15 14 14 13 12 10 6 4 4 3 3 5 6 6 6 6 5 5 6 6 6 6 7 6 6 6 6 6 6 7 6 6 6 5 5 4 4 3 4 3
11 12 17 11 10 13 13 12 9 7 5 4 4 4 4 5 6 6 6 5 5 4 6 6 7 7 6 6 5 5 6 6 6 6 6 6 5 5 5 4 4 4 4 3
10 13 14 12 11 12 11 9 8 7 5 5 5 5 4 5 6 5 5 5 4 3 5 5 6 6 6 6 6 5 5 5 6 6 6 6 6 5 4 4 4 4 4 4
10 12 13 9 9 9 7 7 6 6 5 5 7 7 5 6 6 5 5 4 3 3 3 4 5 6 6 5 5 5 5 4 4 5 5 6 6 5 4 4 4 5 4 4
12 12 10 7 6 6 9 4 2 2 2 2 1 2 5 5 5 4 4 3 3 3 3 3 3 4 5 4 4 4 4 3 3 4 5 5 5 4 4 5 5 5 5 5
11 13 10 5 7 5 1 2 1 1 0 2 3 4 5 5 5 4 4 4 3 3 3 3 3 4 4 3 2 3 3 3 3 3 5 5 5 5 5 5 6 6 5 5
6 6 2 4 4 2 2 2 1 0 1 3 3 4 4 5 4 4 4 3 3 3 4 3 3 3 3 3 2 2 2 3 2 3 3 3 5 5 5 5 6 5 6 6
4 4 4 3 3 3 2 1 1 0 2 3 4 4 4 4 4 3 3 3 3 4 4 3 3 2 2 2 2 2 2 3 3 3 4 4 4 5 5 5 6 6 5 5
6 4 3 3 3 4 3 2 1 1 1 2 3 4 4 4 4 3 3 3 3 4 4 3 2 2 2 2 2 3 3 3 3 4 4 4 4 3 4 4 4 5 4 3
4 3 4 3 2 4 4 3 2 0 1 1 2 3 4 4 4 4 3 3 3 4 4 3 2 2 1 1 1 2 3 3 4 4 4 4 4 3 2 3 3 4 4 3
6 6 5 4 4 4 3 4 2 0 1 1 1 2 4 4 4 4 3 3 4 4 4 3 2 2 1 1 1 2 3 3 4 4 4 4 4 4 4 3 3 3 4 4
5 5 5 4 4 3 3 4 3 1 1 1 1 1 3 4 4 4 3 4 4 4 3 3 2 1 1 1 1 2 4 4 4 4 4 4 4 4 4 4 4 4 5 7
7 7 5 4 4 4 4 3 3 2 2 1 2 1 2 3 4 4 4 4 4 4 3 2 1 0 1 1 2 3 4 4 4 4 4 4 3 3 4 4 3 3 4 4
8 7 5 6 6 6 6 5 4 3 3 2 2 2 2 2 3 4 3 3 3 3 3 2 1 1 2 2 2 3 3 5 4 4 5 4 3 3 4 3 3 4 3 2
8 7 7 7 7 7 6 5 4 3 3 2 2 2 3 3 3 3 3 3 3 2 2 2 2 2 2 2 3 4 4 4 5 5 4 4 3 3 3 3 4 3 2 2
8 8 7 7 7 6 4 3 4 3 3 3 3 2 3 3 3 2 2 2 2 2 2 2 2 2 2 2 3 4 4 3 3 4 3 3 3 3 3 3 3 4 2 2
8 8 7 7 6 4 3 3 3 3 2 2 2 2 2 3 3 3 2 2 2 3 2 2 2 3 3 3 3 4 5 5 4 3 3 3 4 3 3 3 3 2 2 2
5 6 6 6 5 5 4 3 2 2 1 1 1 1 1 1 2 2 2 2 2 2 1 1 3 3 3 3 4 5 5 5 4 3 2 2 3 2 3 3 2 2 2 2
4 4 3 3 3 3 3 3 2 1 1 1 1 1 1 1 1 1 2 2 1 1 1 2 3 2 2 2 4 4 4 4 4 3 3 3 2 2 3 2 2 2 2 1
2 2 2 2 3 2 1 1 2 2 2 2 2 1 1 2 2 2 2 2 2 1 2 2 1 1 2 3 3 3 3 4 3 3 3 3 2 2 2 2 2 2 1 1
1 1 1 1 2 2 1 1 2 2 2 2 2 2 2 2 3 3 2 1 1 2 1 0 1 1 2 3 4 3 4 4 4 3 2 2 2 2 2 2 2 2 1 1
0 1 1 1 2 1 1 2 2 1 1 1 2 2 2 3 2 2 1 1 2 2 1 1 1 1 3 3 3 3 3 3 3 3 3 2 2 2 2 2 2 2 2 2
0 1 1 1 2 2 2 2 2 2 3 2 2 2 2 2 1 0 1 1 2 2 1 2 2 1 2 2 2 2 2 3 3 4 4 3 3 3 2 2 2 2 2 2
2 2 1 1 1 2 2 2 2 2 2 2 2 1 1 0 1 0 1 1 0 0 0 0 1 1 1 2 2 2 2 2 2 3 3 3 3 3 3 3 3 2 2 3
3 3 2 3 3 3 2 2 2 2 1 1 0 0 0 0 0 0 1 1 1 1 0 1 1 1 0 1 1 2 2 2 2 2 2 3 3 3 3 4 3 3 2 2
Wind_Direction
259 266 264 248 239 234 238 250 258 250 222 203 195 195 167 151 151 150 150 156 150 148 147 161 164 160 160 163 163 166 168 170 170 173 175 181 187 192 193 200 206 204 209 215
259 260 262 258 246 241 243 244 248 248 243 219 187 179 171 165 163 157 161 164 161 152 149 154 164 160 160 160 163 165 171 171 166 170 176 184 189 191 196 203 213 211 212 216
256 257 257 247 242 243 245 243 246 240 233 198 180 189 181 159 161 165 167 158 160 167 163 163 170 170 165 165 166 168 175 174 171 177 182 187 197 195 202 205 207 217 220 215
251 250 246 246 252 252 249 247 247 240 217 184 184 177 195 173 163 164 162 158 157 171 168 171 175 173 166 169 170 174 177 180 179 183 187 187 196 201 200 202 205 212 222 220
249 249 247 247 247 245 245 244 238 236 212 192 185 186 198 165 156 153 147 137 140 166 170 163 172 169 159 170 175 182 184 184 185 187 189 189 195 201 202 203 208 213 215 218
242 251 248 236 239 249 239 236 235 229 219 201 197 212 170 143 129 126 122 124 140 158 160 157 168 162 162 175 182 187 186 186 189 184 190 196 195 197 201 207 213 217 214 218
241 247 256 275 255 240 233 228 246 232 244 220 203 95 110 111 109 111 117 123 139 150 147 136 146 148 158 175 189 184 179 180 194 187 190 199 193 195 201 209 214 222 222 223
234 243 245 285 270 253 307 40 332 297 171 118 115 119 124 115 110 116 118 129 144 135 131 128 134 143 155 170 170 160 165 182 196 202 212 208 196 201 205 212 217 223 224 231
225 233 258 317 326 355 8 21 23 99 169 156 155 152 140 126 125 126 118 118 131 121 115 112 112 134 156 152 145 155 171 191 203 218 217 211 203 208 210 217 227 227 223 229
241 226 232 267 303 331 340 358 325 203 171 163 162 158 145 137 126 123 122 132 129 123 117 110 112 121 131 140 151 164 188 203 210 225 219 216 213 211 218 218 228 234 229 229
236 234 245 249 286 307 308 320 315 294 269 177 172 164 152 139 132 130 130 137 133 124 119 106 108 128 121 134 173 196 209 219 224 233 229 217 224 240 226 223 221 230 240 237
267 301 286 277 299 308 319 317 311 317 256 224 195 174 149 140 134 139 141 134 131 126 125 117 111 101 94 152 207 224 226 231 235 238 225 217 215 230 270 248 232 215 224 242
299 299 294 305 302 302 303 306 291 257 268 237 179 186 146 139 138 139 135 138 134 130 125 128 128 124 143 207 232 238 248 252 253 252 240 229 226 221 224 241 251 249 237 234
311 300 282 282 284 290 283 284 279 244 245 264 196 164 144 145 145 146 155 154 145 138 133 132 128 126 182 200 231 249 254 254 261 261 262 254 246 240 231 227 224 234 231 225
291 280 270 278 283 282 277 263 253 240 223 217 182 174 170 162 157 160 156 154 150 149 147 144 143 165 251 228 244 259 257 260 262 267 268 265 256 253 252 245 240 234 225 205
267 266 259 257 261 264 268 258 239 225 230 221 187 174 166 163 164 151 150 161 165 165 154 156 179 227 260 257 266 261 254 256 262 270 272 271 268 265 261 259 258 254 246 216
266 264 262 258 254 254 252 253 246 222 214 208 185 193 183 170 155 153 172 167 152 154 166 179 214 236 249 267 281 273 260 249 245 262 268 274 280 277 273 270 269 265 255 222
257 260 262 262 263 256 254 258 257 245 226 195 178 180 182 170 166 162 172 164 159 173 187 205 237 259 259 265 270 274 273 267 261 265 272 274 276 274 269 272 278 281 270 226
248 246 251 259 262 263 256 257 252 239 209 178 177 189 196 189 173 162 166 180 196 215 211 203 230 250 258 262 271 269 269 272 268 265 272 268 269 273 277 277 281 295 300 277
239 238 239 246 248 247 248 253 242 206 186 162 160 164 176 177 166 176 194 223 239 244 202 213 243 259 259 261 266 264 269 274 277 277 269 270 281 291 290 290 300 305 303 298
227 226 232 248 257 255 253 258 234 191 188 203 197 181 158 172 202 199 227 249 203 135 198 223 244 258 266 285 265 269 272 274 281 282 272 272 277 284 291 299 300 295 301 319
236 237 239 255 274 295 308 298 256 233 213 213 213 190 183 208 233 239 240 246 224 168 225 241 261 20 338 291 271 278 283 283 284 285 290 297 299 294 294 299 297 300 308 324
208 243 263 272 282 291 286 272 255 238 220 219 218 216 229 243 258 264 263 240 198 164 234 318 78 61 300 276 279 281 285 290 293 295 307 325 316 311 314 310 305 308 318 298
196 252 261 239 239 230 227 228 240 231 210 213 210 205 231 248 250 251 247 150 128 172 227 129 159 215 256 275 291 303 308 315 323 323 321 320 320 322 322 320 323 322 317 313
269 281 278 230 212 207 200 210 217 215 217 219 212 202 223 238 244 299 89 103 123 146 149 144 179 223 263 297 320 334 336 336 332 321 323 326 325 330 339 344 347 346 346 358
231 239 235 231 237 236 225 222 229 228 227 220 217 213 229 225 86 131 178 223 188 145 172 126 153 196 276 318 340 346 339 335 337 328 331 337 340 350 4 6 4 20 34 35
222 227 230 238 234 226 226 226 227 230 227 206 270 325 169 264 272 228 239 249 241 225 223 204 207 185 257 323 348 354 357 354 348 342 344 356 4 14 26 33 28 31 39 47